Location: Brachbach
(49.1847°N, 9.7240°E)
Time: 23:19:06
(UTC+00:00)

STARS - Visible Passes

Search period start: 14 March 2026 00:00
Search period end: 24 March 2026 00:00
Orbit: 575 x 589 km, 98.1° (Epoch: 14 March)

Date Brightness Start Highest point End Pass type
(mag) Time Alt. Az. Time Alt. Az. Time Alt. Az.
14 Mar ? 02:09:37 10° N 02:10:09 13° N 02:10:09 13° N visible
15 Mar ? 02:15:20 10° N 02:15:59 14° N 02:15:59 14° N visible
16 Mar ? 02:21:02 10° N 02:21:47 14° N 02:21:47 14° N visible
17 Mar ? 02:26:45 10° N 02:27:36 15° NNW 02:27:36 15° NNW visible
18 Mar ? 00:56:50 10° NNE 00:57:00 11° NNE 00:57:00 11° NNE visible
18 Mar ? 02:32:27 10° N 02:33:23 15° NNW 02:33:23 15° NNW visible
19 Mar ? 01:02:23 10° NNE 01:02:47 12° NNE 01:02:47 12° NNE visible
19 Mar ? 02:38:09 10° N 02:39:10 15° NNW 02:39:10 15° NNW visible
20 Mar ? 01:07:55 10° NNE 01:08:34 14° NNE 01:08:34 14° NNE visible
20 Mar ? 02:43:52 10° NNW 02:44:57 15° NNW 02:44:57 15° NNW visible
21 Mar ? 01:13:27 10° NNE 01:14:20 16° NNE 01:14:20 16° NNE visible
21 Mar ? 02:49:36 10° NNW 02:50:43 15° NNW 02:50:43 15° NNW visible
22 Mar ? 01:19:00 10° NNE 01:20:05 18° NNE 01:20:05 18° NNE visible
22 Mar ? 02:55:20 10° NNW 02:56:28 14° NW 02:56:28 14° NW visible
23 Mar ? 01:24:32 10° NNE 01:25:50 20° NNE 01:25:50 20° NNE visible
23 Mar ? 03:01:05 10° NNW 03:02:13 13° NW 03:02:13 13° NW visible
